Location: Unspecified
(33.9239°N, 118.0544°W)
Time: 10:58:34
(UTC-07:00)

Daily predictions for brighter satellites

Satellite Brightness Start Highest point End
(mag) Time Altitude Azimuth Time Altitude Azimuth Time Altitude Azimuth
ALOS 2.5 20:18:44 10° SSE 20:23:16 56° ENE 20:27:51 10° N
Meteor 2-9 Rocket 4.4 20:19:27 10° N 20:25:10 62° E 20:30:57 10° SSE
ISS -0.6 20:24:16 10° W 20:26:58 23° NW 20:29:41 10° NNE
Timation 1 Rocket 4.5 20:21:13 10° NNW 20:27:13 65° ENE 20:33:08 10° SSE
deb Centaur AC-2 4.5 20:23:54 10° WSW 20:28:19 55° S 20:33:29 10° ESE
Cosmos 1606 Rocket 4.5 20:25:22 10° NNW 20:29:39 52° W 20:33:52 10° S
Meteor 1-15 Rocket 4.3 20:24:29 10° N 20:30:05 65° E 20:35:44 10° SSE
Atlas Centaur 2 2.8 20:27:08 10° WSW 20:33:31 67° S 20:41:24 10° E
H-2A R/B 3.2 20:31:01 10° SE 20:34:40 28° ENE 20:38:24 10° NNE
Cosmos 1943 3.6 20:31:29 10° S 20:36:46 42° ESE 20:42:05 10° NE
Cosmos 2228 3.0 20:33:03 10° N 20:37:28 73° E 20:41:50 10° SSE
Tsikada Rocket 4.2 20:34:32 10° SSE 20:40:47 57° E 20:47:00 10° NNE
Cosmos 1626 Rocket 3.5 20:36:43 10° S 20:41:08 71° E 20:45:31 10° NNE
Abrixas rocket 4.1 20:38:46 10° WNW 20:41:34 24° SW 20:44:22 10° S
YAOGAN 11 4.1 20:37:47 10° SSE 20:42:04 65° ENE 20:46:20 10° N
H-2A R/B 2.8 20:40:05 10° SSE 20:44:02 89° WSW 20:48:00 10° NNW
deb Chang Zheng 4 3.7 20:41:24 10° NNE 20:45:41 53° E 20:49:55 10° S
Cosmos 1939 Rocket 3.9 20:48:42 13° SE 20:51:52 32° ENE 20:55:33 10° N
Cosmos 1461 3.6 20:48:53 10° NW 20:52:56 49° WSW 20:56:48 10° S
ATLAS 5 CENTAUR R/B 3.0 20:54:03 10° S 20:55:24 12° SSE 20:56:00 11° SSE
Cosmos 1464 Rocket 4.3 20:49:29 10° N 20:55:37 72° W 21:01:46 10° S
Milstar 3 Cent rocket 4.0 20:48:47 10° W 20:56:50 29° SSW 21:01:24 12° SSE
Cosmos 1346 Rocket 4.1 20:55:11 16° SE 20:56:58 21° E 20:59:58 10° NE
Cosmos 1190 Rocket 4.2 20:55:14 10° S 21:00:20 51° ESE 21:05:28 10° NNE
CZ-3C R/B 3.5 20:55:20 10° WSW 21:02:21 18° SSW 21:04:49 12° SSE
SPOT 5 3.7 21:00:16 17° ESE 21:02:49 28° ENE 21:06:31 10° NNE
ATLAS 3B R/B 2.9 20:58:42 10° SSW 21:06:23 78° ESE 21:14:00 10° NNE
Delta 168 4.2 21:04:19 10° SW 21:06:32 17° S 21:07:20 16° SSE
Nimbus 7 Rocket 4.4 21:02:17 10° NNE 21:08:11 66° ESE 21:14:00 10° S
Cosmos 1666 4.3 21:09:58 10° NNW 21:13:31 34° W 21:17:03 10° SSW
Cosmos 2034 Rocket 4.4 21:11:25 10° NNW 21:17:41 64° W 21:23:52 10° S
Cosmos 676 Rocket 4.4 21:13:07 11° S 21:17:54 42° ESE 21:22:54 10° NNE
YAOGAN 6 4.2 21:18:24 19° E 21:19:09 20° ENE 21:21:55 10° NNE
GRACE-1 4.2 21:17:17 10° N 21:20:08 66° W 21:21:59 19° SSW
GRACE-2 4.2 21:17:44 10° N 21:20:35 66° W 21:22:24 19° SSW
ERS-1 Rocket 3.3 21:17:16 11° S 21:22:08 67° WSW 21:27:08 10° NNW
Cosmos 2369 Rocket 2.4 21:17:43 10° N 21:23:15 54° ENE 21:26:22 25° SE
COSMOS 2455 4.5 21:22:00 10° WSW 21:27:28 36° WNW 21:32:58 10° N
DEBRIS 1.8 21:24:17 10° NW 21:28:14 88° NE 21:28:40 55° SE
Cosmos 1932 4.5 21:22:28 10° S 21:28:25 54° ESE 21:34:27 10° NE
CZ-2C R/B 3.1 21:31:02 12° SW 21:32:15 17° W 21:33:53 10° NW
Cosmos 1758 Rocket 3.7 21:34:20 33° SSE 21:35:58 51° E 21:40:12 10° NNE
Envisat 3.0 21:37:30 24° S 21:40:36 85° WSW 21:45:42 10° NNW
SL-27 R/B 3.4 21:44:18 30° ENE 21:44:18 30° ENE 21:46:27 10° NNE
GEOS 3 Rocket 3.7 21:40:33 28° SSE 21:43:23 71° WSW 21:48:37 10° NW
Cosmos 407 Rocket 3.6 21:38:45 10° SSW 21:44:01 77° WNW 21:49:15 10° NNE
CZ-4C R/B 4.3 21:48:42 10° ENE 21:48:42 10° ENE 21:48:47 10° ENE
Cosmos 1825 Rocket 4.2 21:47:38 13° SSW 21:51:26 55° W 21:55:47 10° N
USA 238 DEB 3.7 21:47:14 10° SSW 21:54:16 70° ESE 22:01:18 10° NE
USA 238 3.7 21:47:20 10° SSW 21:54:22 69° ESE 22:01:23 10° NE
MetOp-A 4.1 21:54:19 35° SSE 21:56:39 88° ENE 22:02:02 10° NNW
Cosmos 2263 4.1 21:53:26 10° NNW 21:59:05 79° ENE 22:01:02 42° SSE
Lacrosse 4 Rocket 3.5 21:56:19 10° WSW 21:59:44 26° WNW 22:03:12 10° N
COSMOS 2406 3.2 22:03:21 40° SSE 22:05:12 60° ESE 22:10:50 10° NNE
Cosmos 1954 Rocket 4.0 22:02:05 23° SSW 22:05:32 86° WNW 22:10:52 10° NNE
Cosmos 2084 4.4 22:06:05 10° NNW 22:09:57 35° NE 22:10:11 35° ENE
H-2A R/B 4.3 22:07:40 11° SW 22:10:39 20° W 22:13:51 10° NW
CZ-4C R/B 4.1 22:11:59 42° ENE 22:11:59 42° ENE 22:15:29 10° N
Cosmos 1943 Rocket 2.4 22:06:53 10° N 22:12:19 53° ENE 22:13:25 46° ESE
SeaSat 1 2.3 22:12:25 57° SSE 22:13:26 86° ENE 22:18:24 10° NNW
Landsat 7 4.2 22:20:31 48° ENE 22:20:35 48° ENE 22:25:09 10° N
Atlas Centaur 2 3.0 22:15:56 10° W 22:23:07 59° S 22:25:27 45° SE
NOSS 3-2 (C) 4.4 22:30:29 30° E 22:30:29 30° E 22:34:31 10° NE
Cosmos 1953 3.1 22:25:40 10° N 22:28:40 45° NNE 22:28:40 45° NNE
Cosmos 1741 Rocket 3.8 22:30:05 72° SE 22:30:25 75° ESE 22:35:44 10° NNE
Geosat 3.8 22:31:08 10° NNE 22:36:05 76° E 22:36:05 76° E
Cosmos 1842 4.1 22:36:20 45° W 22:36:20 45° W 22:40:04 10° N
Terra 2.3 22:36:49 47° NE 22:36:49 47° NE 22:40:58 10° N
Cosmos 1092 Rocket 4.2 22:36:22 51° ESE 22:36:42 51° E 22:42:45 10° NNE
OAO 1 Rocket 4.3 22:32:06 10° WSW 22:37:01 73° SW 22:37:01 73° SW
ARGOS 3.4 22:41:02 54° SW 22:41:56 62° WSW 22:47:19 10° NNW
Cosmos-2242 3.3 22:37:50 10° N 22:41:48 67° NW 22:41:48 67° NW
Nadezhda 4 Rocket 3.9 22:42:56 63° S 22:44:04 83° E 22:50:25 10° N
Cosmos 1850 Rocket 4.1 22:45:13 65° SW 22:45:51 74° WNW 22:51:05 10° NNE
Cosmos 1140 Rocket 4.1 22:46:24 37° SW 22:48:08 52° WNW 22:53:16 10° N
H-2A R/B 2.0 22:54:58 75° N 22:54:58 75° N 22:59:39 10° N
Cosmos 1570 Rocket 4.0 22:50:03 10° NNW 22:55:11 81° NNE 22:55:11 81° NNE
Cosmos 2369 Rocket 4.2 23:03:20 10° WNW 23:06:43 16° W 23:08:12 15° WSW
Cosmos 614 Rocket 4.4 23:07:38 55° W 23:07:53 56° WNW 23:13:00 10° N
NOSS 3-2 (A) 3.3 23:10:04 82° SW 23:10:21 87° WNW 23:16:53 10° NNE
USA 234 3.1 23:11:49 70° ESE 23:12:35 81° NE 23:19:09 10° NW
Cosmos 1655 Rocket 4.3 23:18:06 54° ENE 23:18:06 54° ENE 23:23:32 10° NNE
Cosmos 2026 Rocket 4.1 23:24:08 60° NE 23:24:08 60° NE 23:29:20 10° NNE
Cosmos 2195 Rocket 4.5 23:25:08 74° NE 23:25:08 74° NE 23:30:55 10° N
Meteor 2-5 Rocket 3.9 23:25:22 74° NW 23:25:22 74° NW 23:30:46 10° N
CZ-4C R/B 2.6 23:33:48 57° NW 23:33:48 57° NW 23:39:16 10° NNE
Cosmos 1627 Rocket 4.5 23:37:34 75° NNW 23:37:34 75° NNW 23:43:13 10° N
Cosmos 2344 3.8 23:45:49 56° E 23:45:49 56° E 23:53:04 10° NE
Cosmos 1943 Rocket 4.3 23:52:10 10° WNW 23:54:56 16° W 23:54:56 16° W
